Theta_e
312 312 311 311 309 307 308 310 304 319 310 301 298 293 300 301 301 301 301 299 297 295 295 293 294 294 296 299 298 293 293 287 283 289 295 299 296 291 290 284 283 285 286 287
311 311 311 311 309 307 301 302 307 316 308 294 295 297 299 300 300 299 299 299 299 299 294 289 295 297 300 301 298 293 292 286 283 285 289 294 292 294 292 291 288 284 281 284
312 311 311 311 309 307 305 306 302 300 301 299 296 295 296 296 301 301 301 299 300 296 293 294 293 295 300 301 300 308 300 290 288 282 287 290 289 290 291 289 283 285 288 289
312 312 311 311 309 307 308 307 299 297 294 295 295 294 297 297 296 300 300 297 298 294 288 291 292 295 295 300 307 300 295 288 290 291 293 294 291 290 290 288 289 284 288 289
312 311 311 311 310 307 306 298 298 300 297 298 296 294 294 296 297 296 298 295 297 294 290 293 290 292 290 291 295 295 293 286 289 288 294 293 290 291 290 290 290 289 289 289
312 311 311 311 310 305 299 305 304 301 298 297 296 295 298 298 297 298 299 298 294 294 297 297 296 295 293 294 292 293 292 289 285 283 291 290 285 288 289 289 290 289 284 288
311 311 312 311 311 308 298 300 301 298 296 299 298 302 300 298 297 295 299 296 294 299 301 299 295 294 295 295 295 296 292 289 287 283 285 277 286 294 294 291 291 292 291 292
311 312 312 311 311 311 300 298 300 296 292 299 300 300 298 297 295 295 296 298 299 300 298 292 290 290 293 296 297 296 296 290 285 280 279 285 291 294 292 289 286 294 292 293
311 312 312 312 311 311 301 298 304 302 293 293 302 298 299 293 291 295 299 302 300 299 295 292 285 285 290 291 295 298 297 294 288 283 278 275 285 297 299 295 281 295 294 294
312 312 312 312 312 311 306 297 300 301 295 297 297 296 296 300 294 293 294 298 297 298 291 289 287 288 295 288 288 289 289 289 286 284 281 285 295 299 299 283 283 295 296 294
311 311 312 312 312 312 307 298 299 299 297 299 303 303 295 295 294 291 296 295 297 295 291 290 290 288 290 289 291 290 288 286 284 284 279 279 299 299 291 292 294 297 296 295
310 311 312 312 312 312 309 297 303 303 299 299 302 304 303 302 302 298 297 296 296 297 291 291 290 288 288 287 284 295 287 291 287 288 285 292 298 295 298 298 296 297 296 297
310 310 311 312 312 312 309 299 299 300 299 299 297 298 304 305 303 305 296 296 303 301 299 295 292 288 290 286 287 290 294 297 292 292 295 297 299 300 302 302 299 299 299 299
310 310 311 312 312 311 309 299 300 298 299 294 296 306 306 310 305 306 303 303 305 303 299 294 292 290 295 290 292 292 297 296 294 293 297 299 302 303 303 302 302 302 302 301
310 311 312 311 311 310 307 304 302 302 300 295 297 305 306 306 305 307 305 305 302 299 295 295 294 296 295 295 295 293 300 294 292 291 299 299 299 303 304 301 302 303 302 300
311 312 312 311 310 309 302 301 305 303 305 301 294 300 303 308 307 304 303 304 302 299 297 295 297 301 297 291 290 298 301 302 302 299 302 303 304 305 305 303 303 303 302 301
310 311 310 310 309 303 301 303 308 306 307 298 294 296 305 309 308 306 307 308 304 301 301 299 299 300 302 296 292 298 301 303 305 305 304 301 302 300 304 304 305 306 303 301
310 310 310 310 309 306 303 307 308 306 304 302 294 297 300 307 302 300 307 302 305 304 302 301 298 299 299 288 291 296 299 301 302 304 305 303 303 303 302 303 302 302 300 300
309 309 310 308 306 304 303 312 310 305 304 298 298 296 294 306 301 302 301 301 295 302 298 299 300 288 285 290 294 295 296 299 300 303 305 305 302 301 301 300 300 299 298 300
309 307 303 303 305 312 310 306 305 306 306 303 297 302 297 302 300 297 295 297 293 294 297 302 290 286 293 296 297 299 298 299 300 297 298 300 300 301 301 300 300 301 301 302
303 299 298 302 308 305 305 301 302 303 299 300 300 300 296 302 295 294 298 292 293 291 294 294 286 286 292 297 298 300 301 301 300 300 302 303 302 301 302 302 303 302 304 303
302 302 305 302 302 307 301 297 299 297 295 299 297 298 299 299 301 295 297 291 294 290 298 287 283 290 295 296 297 299 301 302 301 301 300 301 302 304 304 303 303 303 303 304
304 300 300 302 302 293 296 292 293 293 297 298 298 296 297 300 302 299 296 291 288 295 287 285 287 292 296 296 297 299 301 300 301 300 300 301 301 303 305 304 305 306 305 304
299 301 290 294 294 297 295 296 297 300 299 298 297 296 296 297 295 296 292 290 289 284 279 281 289 293 295 296 297 297 297 298 298 298 299 299 300 301 305 306 306 305 305 305
300 301 288 294 298 301 300 301 300 301 300 298 296 296 296 293 292 290 287 284 282 284 280 289 293 292 293 293 295 295 295 295 296 298 298 299 300 300 302 305 306 305 305 305
303 300 295 297 298 298 300 298 298 301 299 299 297 294 293 289 289 286 285 279 279 282 289 291 290 291 292 294 295 296 296 297 297 299 299 300 301 301 301 304 306 306 305 304
303 298 300 298 300 299 299 300 300 302 298 294 295 290 288 291 285 284 287 283 285 292 289 289 289 293 294 295 296 296 297 296 296 298 299 301 305 306 305 303 304 305 306 305
Wind_Speed
25 25 26 25 25 27 2 2 2 6 4 5 1 2 4 3 3 6 5 4 4 3 4 3 4 3 3 1 3 4 1 6 2 5 3 10 5 0 3 5 6 3 2 3
27 26 27 27 24 14 3 1 4 4 6 4 3 3 2 3 3 2 2 2 2 2 2 2 3 3 4 4 4 5 3 2 4 10 8 4 4 2 2 3 2 3 2 4
27 27 27 29 30 22 4 3 4 6 6 0 5 3 0 3 2 2 3 3 1 2 1 2 3 3 3 3 3 6 7 3 6 5 8 4 2 4 5 3 2 4 3 3
27 28 30 31 34 27 1 4 3 3 3 4 1 2 2 3 4 3 3 1 3 3 2 3 3 1 4 5 4 3 5 4 3 5 6 1 3 2 4 3 1 2 3 3
27 27 28 30 34 29 5 3 4 6 4 4 2 0 3 6 4 4 3 4 1 3 2 5 3 0 2 4 2 3 0 3 2 4 5 5 4 2 2 0 2 2 6 5
26 27 26 27 28 18 4 4 4 4 5 5 3 5 7 6 7 3 7 6 5 2 6 6 7 6 6 6 6 4 5 5 4 5 4 0 2 6 5 4 4 4 4 6
25 26 25 23 21 14 2 4 2 4 5 3 3 7 6 5 5 6 4 5 5 5 3 1 3 3 7 7 9 8 5 5 5 5 2 1 9 7 7 7 5 6 4 5
24 24 24 22 20 17 2 4 1 2 4 2 6 13 4 2 3 5 5 6 7 8 5 5 6 6 5 6 10 9 10 5 2 4 4 5 2 6 7 7 7 8 7 7
23 24 24 22 20 18 2 4 2 3 2 5 2 5 4 1 2 7 3 5 4 5 4 3 3 4 4 4 5 4 5 5 5 2 3 6 8 3 8 6 6 8 7 7
24 24 24 23 20 17 5 5 2 3 1 6 3 1 4 4 1 3 3 3 2 4 3 2 4 5 5 5 2 1 3 2 5 3 5 7 6 9 5 5 11 7 8 7
25 24 24 23 19 16 7 7 4 5 3 7 5 4 1 4 0 4 5 6 5 3 2 4 4 2 2 2 1 3 5 4 4 1 1 7 6 9 8 9 3 7 6 5
25 24 24 23 19 14 9 4 3 1 4 8 5 9 10 11 15 6 1 7 5 6 4 1 2 1 1 4 3 2 2 8 6 9 8 6 5 8 4 9 8 7 6 6
27 24 25 23 19 13 6 4 4 3 2 7 4 4 7 2 8 8 6 3 4 1 5 5 3 3 4 2 5 4 4 4 4 2 5 6 6 4 8 8 8 8 8 7
29 26 26 24 19 13 6 3 2 0 1 1 8 4 8 14 1 5 5 7 3 6 4 2 3 3 4 5 6 5 6 3 5 5 5 5 8 8 9 10 8 7 8 7
30 30 27 25 18 13 5 4 4 3 4 3 6 10 7 5 3 7 6 7 5 3 2 2 4 3 2 2 1 4 5 7 5 7 9 7 12 9 10 8 8 11 12 9
32 34 27 24 16 9 0 4 1 4 3 0 5 5 10 13 4 4 5 3 2 4 5 5 4 4 6 1 2 3 6 8 6 8 10 13 8 9 10 14 13 11 13 10
34 36 29 23 8 2 3 4 3 2 3 2 5 6 5 6 6 4 4 6 3 4 2 4 3 3 5 3 3 17 15 18 20 17 9 1 6 9 13 8 9 10 10 10
35 35 30 23 5 1 3 2 2 1 2 3 1 5 7 5 3 3 2 3 0 2 4 3 2 2 5 5 14 18 18 20 21 26 9 10 11 10 9 10 7 9 9 8
35 33 22 1 3 3 3 5 3 1 4 1 1 2 3 2 2 2 2 2 2 2 3 3 5 6 6 7 15 16 17 13 17 18 19 13 3 6 8 9 8 8 7 8
28 8 5 3 2 13 10 3 3 3 2 2 2 2 5 3 1 3 1 1 3 2 4 2 7 2 7 7 10 10 13 18 16 15 21 18 20 14 7 10 7 11 12 9
7 7 4 6 16 2 1 0 2 2 1 2 4 5 4 3 3 4 2 2 1 2 4 5 1 1 7 12 13 14 12 8 11 15 11 10 11 10 10 11 6 11 12 12
6 8 6 5 4 3 1 2 1 3 1 2 2 6 5 3 3 3 4 2 2 2 6 3 3 3 10 13 16 16 13 13 10 10 17 13 13 12 9 8 8 9 6 6
0 1 3 1 3 5 3 3 4 3 3 3 4 7 1 4 4 3 4 7 5 3 3 1 3 6 11 15 14 15 12 13 11 14 14 15 15 13 8 7 8 11 9 7
2 3 7 3 4 1 2 3 3 5 1 4 3 4 4 3 5 3 4 2 3 3 4 4 4 13 15 14 12 14 15 14 16 15 15 14 13 13 9 6 4 8 5 7
4 2 4 4 3 1 3 2 2 3 2 2 4 4 4 5 5 4 4 6 4 3 3 5 8 8 11 13 15 14 14 15 14 13 13 14 14 12 12 7 4 6 8 8
4 5 3 3 3 4 3 2 1 3 2 3 4 4 5 5 3 4 4 2 2 4 3 5 4 10 12 14 15 16 15 15 14 12 13 15 14 11 10 9 4 4 8 9
4 4 4 3 2 4 1 2 2 2 4 3 3 5 0 1 3 2 3 3 4 3 4 4 5 10 13 15 15 16 17 16 15 14 15 14 11 4 2 3 4 3 8 11
Wind_Direction
352 351 349 348 346 337 53 39 360 270 53 54 51 127 142 151 112 43 29 95 81 100 12 317 37 62 80 215 169 73 46 129 283 266 262 112 109 167 112 120 288 259 200 243
353 353 352 347 348 350 322 60 252 325 84 97 334 260 97 101 125 145 100 87 107 135 74 357 14 23 357 73 86 150 188 39 16 342 349 6 91 333 161 240 21 170 149 262
354 355 355 351 345 345 162 68 353 331 37 246 123 45 122 144 98 131 129 186 331 107 92 140 288 18 11 55 119 123 91 114 149 197 232 249 288 31 2 78 87 301 303 324
354 356 356 357 349 357 358 32 285 205 308 324 112 140 246 129 177 142 161 35 112 149 206 298 274 328 9 26 100 87 105 163 217 247 267 220 119 74 50 73 210 206 313 223
355 357 359 360 355 344 56 59 34 345 281 306 321 29 237 177 141 144 176 153 127 67 154 186 229 218 198 202 284 100 346 222 233 286 286 184 147 180 119 129 174 247 315 246
354 355 359 2 4 358 35 315 327 105 281 334 26 243 214 188 141 238 179 169 143 214 195 197 215 206 198 201 185 195 171 152 105 254 271 314 337 210 185 207 230 180 232 243
351 351 354 359 4 21 240 255 70 49 285 345 340 325 256 189 192 180 187 146 157 212 136 318 348 219 225 206 235 176 184 153 139 244 54 181 239 196 178 184 209 203 207 250
346 346 348 352 354 356 292 281 62 110 286 305 308 339 274 180 149 196 219 251 188 153 75 40 354 344 2 257 229 208 187 140 193 156 203 272 246 207 186 174 254 194 200 247
340 342 342 346 348 350 318 266 232 119 119 256 279 328 340 240 309 348 271 29 130 81 102 106 187 232 238 271 303 2 101 79 140 141 196 228 235 191 122 96 293 202 185 223
336 339 339 340 343 345 336 278 257 79 212 265 93 318 271 324 44 176 303 163 201 79 112 153 201 236 216 227 198 287 40 61 179 221 238 286 229 150 125 100 239 181 187 213
332 334 335 334 339 341 351 274 242 145 235 277 216 193 216 325 271 142 254 33 343 52 125 165 238 193 270 49 209 199 181 162 222 142 237 290 158 130 176 209 185 184 201 193
329 328 331 331 333 334 337 284 302 1 176 239 224 247 224 196 220 168 232 181 185 208 114 190 134 301 1 158 249 333 239 182 189 168 214 229 234 206 204 165 174 199 188 205
324 325 328 328 328 325 307 270 287 349 351 306 26 290 276 278 215 180 143 287 179 86 171 164 182 210 134 189 241 217 269 164 202 88 261 220 211 192 177 187 206 187 199 214
321 322 326 325 323 318 289 222 265 60 265 281 284 308 311 299 320 189 159 155 75 127 94 123 161 180 165 207 215 182 205 170 208 245 270 303 246 230 219 210 206 201 205 208
319 319 325 323 321 310 261 204 239 212 121 251 282 308 275 298 256 199 133 123 120 121 91 135 221 215 104 281 151 241 174 212 174 235 233 195 246 233 219 196 211 210 202 219
317 318 325 320 319 327 77 25 338 214 192 352 334 288 343 342 353 144 140 125 122 146 158 208 226 222 122 220 262 278 341 296 225 241 216 225 218 211 191 209 217 211 203 200
315 315 321 313 292 162 151 180 223 328 164 70 322 318 344 341 56 59 29 26 330 10 35 263 227 178 111 182 338 339 339 330 311 270 226 178 184 211 211 195 209 201 195 201
314 315 318 315 121 208 14 314 240 288 63 66 343 304 360 10 345 324 101 226 309 199 238 248 226 42 42 50 328 335 343 350 1 342 218 201 208 210 205 206 199 206 194 198
314 311 318 119 46 51 267 292 267 146 129 123 80 134 256 318 248 222 301 152 263 286 236 235 86 3 54 300 326 339 350 351 338 339 0 350 281 214 228 188 183 156 151 140
313 346 17 331 4 300 314 39 46 39 346 28 210 170 232 140 252 281 337 182 243 303 255 93 75 99 220 264 310 330 350 356 349 358 353 348 348 341 277 220 181 172 176 176
1 356 313 304 298 325 49 134 149 150 36 258 248 216 252 246 187 231 154 264 305 310 298 54 69 344 348 330 332 327 317 354 352 347 330 317 297 311 19 355 226 176 185 190
277 278 308 298 304 343 2 306 24 46 252 266 217 261 247 295 80 57 12 342 310 240 45 81 358 290 337 336 329 321 317 322 334 348 323 328 331 331 354 13 354 307 195 176
127 212 251 187 270 21 10 31 319 318 295 294 300 323 262 8 50 59 39 22 358 74 29 24 251 301 322 324 321 315 321 322 322 328 323 326 327 322 318 0 342 344 247 222
268 261 310 179 301 241 188 190 215 241 222 300 298 291 61 353 49 8 24 342 36 30 15 303 319 332 327 327 329 331 329 329 325 320 319 315 309 307 324 309 3 319 307 291
249 232 246 241 256 181 216 205 35 317 285 344 342 32 70 12 60 37 24 18 27 0 265 288 330 330 325 326 326 327 325 322 318 307 308 306 305 303 301 292 235 267 271 308
222 238 282 278 63 337 346 35 6 304 358 11 37 53 59 25 59 56 35 36 284 263 290 316 331 332 328 330 331 328 312 317 312 309 309 301 282 265 264 276 229 249 297 318
238 249 230 205 177 210 236 149 241 312 68 25 41 53 120 98 53 67 136 195 238 295 315 316 327 345 336 328 326 338 340 339 335 326 325 322 359 9 5 310 345 347 273 269